IUS DEB, 43361

Orbit data source: Space-Track

IUS DEB, 43361 is space debris originally from a launch on Fri, 23 Jul 1999 UTC launched from the Air Force Eastern Test Range (AFETR). Debris objects in space refer to the collection of defunct objects orbiting the Earth. Examples of debris include non-operational satellites, rocket bodies, and fragments generated from explosions, collisions, or faulty payload assembly.

Loading next visibility...
Identifier
43361, 1999-040J
Orbit
Active
Last TLE update
9 hours ago
Origin
Manufacturer
Boeing/Kent
Mission
Spacecraft
Bus & Motor
Unknown
Mass
Unknown
Launch date (UTC)
1999-07-23 (26 years ago)
Launch vehicle
Unknown
Launch site
Air Force Eastern Test Range (AFETR)
Object type
Payload
Rocket body
Debris
Shape & HBR
Unknown
Radar Cross Section
Small (<0.1 m²)

Expand to show TLE details & history

TLE from 9 hours ago
0 IUS DEB
1 43361U 99040J   25182.39229647 -.00000111  00000-0 -27725-2 0  9999
2 43361  27.8682 289.3909 3370149 122.2372 274.9442  7.21206602257965
Epoch: 2025-07-01T09:24Z
TLE epoch observation values (Epoch: 2025-07-01T09:24:54.414Z)
Latitude
-0.00001°
Longitude
-131.52425°
Altitude
5,846.956 km
Speed
5.477 km/s
True Right ascension
19h 17m 33s
True Declination
0° 00' 00"
Sunlit
Object was in full shadow at epoch
Visualization orbit readout
Latitude
-27.79378°
Longitude
144.10213°
Altitude
7,926.631 km
Speed
4.531 km/s
Apparent Right ascension
14h 43m 26s
Apparent Declination
-34° 25' 08"
Sunlit
Object is in daylight
Visualization observer readout
Local Sidereal Time
05:42:53
Azimuth
95.725° ESE
Elevation
-54.209°
Doppler factor
1
Orbital elements
Apogee altitude
8,755.81 km
Perigee altitude
1,126.328 km
Semi-major axis
11,319.206 km
Eccentricity
0.33701
Inclination
27.8682°
RAAN
289.3909°
Arg. of periapsis
122.2372°
True anomaly
Unknown
Mean anomaly
274.9442°
Eccentric anomaly
Unknown
Mean motion
1.80227 °/min
Orbital period
199.75 mins
BSTAR
-0.0027725
Loading maneuver chart data...
Loading SW <> Apogee altitude chart data...
Loading historical data...
Loading historical data...
Loading historical data...
Loading historical data...
Loading historical data...
Loading historical data...
Loading historical data...

IUS DEB Visibility forecast

Observer location: undefined°, undefined°

Span
Click to sort rows by Start time (UTC) header in descending order
Start Az.
Max El. time (UTC)
Max El. Az.
Max El.
End time (UTC)
End Az.
20 mins2025-07-02 05:00:11.363Z162.42° S2025-07-02 05:11:11.363Z149.893° SSE11.098°2025-07-02 05:20:11.363Z137.279° SSE
39 mins2025-07-02 08:33:11.363Z213.2° SW2025-07-02 09:00:11.363Z163.319° S27.722°2025-07-02 09:12:11.363Z107.068° ESE
19 mins2025-07-02 12:24:11.363Z244.334° WSW2025-07-02 12:36:11.363Z186.936° SSW33.464°2025-07-02 12:43:11.363Z114.917° SE
8 mins2025-07-02 16:04:11.363Z238.596° WSW2025-07-02 16:08:11.363Z196.267° SSW18.762°2025-07-02 16:12:11.363Z156.262° SSE
|